Location: Les Coudrans
(46.1056°N, 1.1158°W)
Time: 19:23:48
(UTC+00:00)

Lacrosse 4 Rocket - Pass Details

Date: 03 March 2021
Orbit: 537 x 620 km, 68.0° (Epoch: 21 April)

Event Time Altitude Azimuth Distance (km) Brightness Sun altitude
Rises 20:47:17 0° 225° (SW) 2,825 5.2 -30.2°
Reaches altitude 10° 20:49:34 10° 232° (SW) 1,940 4.4 -30.6°
Enters shadow 20:50:42 17° 238° (WSW) 1,524 3.8 -30.7°
